Arturo Rossi

Chefscout - Renate
29 Mai 2029
Dienstag
Verarbeitung

Persönlichkeit

Anpassungsfähigkeit (12) Ehrgeiz (9) Kontroverse (2) Loyalität (12) Druck (4) Professionalität (8) Fairness (8) Temperament (7)

Profil

Trainerstil Demokratisch
Lizenz Kontinentale Pro
Entschlossenheit 4
Menschenführung 3
Motivation 3
Disziplin 8
Arbeitszufriedenheit
100%
Ermüdung
0%
Rolle Chefscout
Gehalt 49.7K p/W
Vertrag 14.03.2030

Leistung

Verhalten Gut
Trainingseffektivität
28%
Spielerentwicklung
25%
Verletzungsprävention
10%
Taktische Umsetzung
35%

Aktuell beobachtet

58
Spieler Verein Status Fähigkeit Vertrauen Beobachtet Zuletzt beobachtet Letzte Stimme
Ian Simiyu Jr. Tusker Aktiv 84 / 91 40% 1 23.01.2029 -
Franco Bustamante Almagro Aktiv 96 / 101 40% 1 31.08.2027 Mehr Infos nötig
Ikouwem Utin Shooting Stars Aktiv 96 / 100 40% 1 26.08.2027 -
Josephat Lopaga Kakamega Homeboyz Aktiv 108 / 85 40% 1 26.08.2027 -
Santiago Gutiérrez Alvarado Aktiv 104 / 108 40% 2 25.08.2027 -
Kleyder Barreto Estudiantes de Caracas Aktiv 102 / 97 40% 1 25.08.2027 -
Matías Bergara Nueva Chicago Aktiv 109 / 127 40% 1 21.08.2027 -
Simone Cangianiello Sorrento Aktiv 108 / 102 40% 2 20.08.2027 -
Ludovico D'Orazio Audace Cerignola Aktiv 105 / 115 40% 1 20.08.2027 -
Pasquale Giannotti Trento Aktiv 98 / 103 40% 2 17.08.2027 -
Milton Gerez Güemes Aktiv 103 / 103 40% 1 16.08.2027 -
Alessandro Fiordaliso Bra Aktiv 96 / 107 40% 1 16.08.2027 -
Davide Zappella Guidonia Montecelio Aktiv 106 / 99 40% 2 14.08.2027 -
Joshua Tenkorang Ravenna Aktiv 116 / 108 40% 1 14.08.2027 -
Brian Orosco Godoy Cruz Aktiv 114 / 111 40% 1 08.08.2027 -
Federico Giraudo Casarano Aktiv 98 / 98 40% 1 05.08.2027 -
Olaf Kok Arzignano Aktiv 98 / 94 40% 1 04.08.2027 -
Gaetano Vitale Audace Cerignola Aktiv 104 / 96 40% 1 03.08.2027 -
Aaron Nemane Newport County Aktiv 105 / 84 40% 1 03.08.2027 -
Alessandro Eleuteri Forli Aktiv 90 / 91 40% 1 30.07.2027 -
David Nieland Ospitaletto Aktiv 106 / 106 40% 3 27.07.2027 -
Harry Forster Accrington Stanley Aktiv 95 / 103 40% 1 25.07.2027 -
Simone Saporetti Carrarese Aktiv 101 / 86 40% 1 24.07.2027 -
Francesco Proietto Pianese Aktiv 115 / 99 40% 1 23.07.2027 -
Brayan Alcócer Tranmere Rovers Aktiv 104 / 104 40% 1 22.07.2027 -
Alessandro Martina Campobasso Aktiv 97 / 109 40% 1 19.07.2027 -
Samuele Damiani Ascoli Aktiv 109 / 104 40% 1 18.07.2027 -
Joe Sbarra Walsall Aktiv 108 / 86 40% 1 14.07.2027 -
Enrico Celeghin Trapani Aktiv 117 / 114 40% 2 13.07.2027 -
Antonio Cioffi Latina Aktiv 89 / 105 40% 1 12.07.2027 -
Miloš Bočić Altamura Aktiv 107 / 90 40% 1 09.07.2027 -
Neo Eccleston Fleetwood Town Aktiv 107 / 103 40% 1 06.07.2027 -
Harvey Saunders Tranmere Rovers Aktiv 81 / 87 40% 3 03.07.2027 -
Christian D'Urso Triestina Aktiv 109 / 114 40% 1 30.06.2027 -
Brian Farioli Estudiantes Aktiv 115 / 109 40% 1 27.06.2027 -
Mattia Della Rocca Vicenza Aktiv 103 / 88 40% 1 27.06.2027 -
Michele Emmausso Cosenza Aktiv 108 / 96 40% 2 26.06.2027 -
Luca Coccolo Pro Vercelli Aktiv 105 / 88 40% 1 26.06.2027 -
Manuel Di Paola Vis Pesaro Aktiv 111 / 109 40% 1 24.06.2027 -
Francesco Petito Dolomiti Bellunesi Aktiv 95 / 113 40% 1 20.06.2027 -
Mattia Iori Lumezzane Aktiv 97 / 93 40% 1 20.06.2027 -
Thabang Matuludi Polokwane City Aktiv 116 / 120 40% 1 19.06.2027 -
Niccolò Pietra Carpi Aktiv 89 / 104 40% 2 17.06.2027 -
Andrea Tessiore Guidonia Montecelio Aktiv 105 / 100 40% 1 14.06.2027 -
Jamie Robson Oldham Athletic Aktiv 104 / 97 40% 1 14.06.2027 -
Ciro Loreto Cavese Aktiv 93 / 87 40% 1 09.06.2027 -
Kaleb Jimenez Catania Aktiv 104 / 104 40% 1 07.06.2027 -
Luca Maiorano Pro Patria Aktiv 90 / 110 40% 1 05.06.2027 -
Erald Lakti Arzignano Aktiv 94 / 114 40% 1 04.06.2027 -
Marco Piccoli Sambenedettese Aktiv 105 / 103 40% 1 01.06.2027 -
Mattia Maita Benevento Aktiv 111 / 108 40% 1 27.01.2027 -
José Canale Lanús Aktiv 113 / 122 40% 2 23.01.2027 -
Stefano Scognamillo Benevento Aktiv 112 / 109 40% 3 23.01.2027 -
Franco Díaz Temperley Aktiv 129 / 111 40% 2 21.01.2027 -
Iván Calero Karpaty Aktiv 119 / 119 40% 2 20.01.2027 -
Hugo Corinthians Aktiv 114 / 110 40% 1 19.01.2027 -
Joseph Aidoo ES Setif Aktiv 140 / 134 40% 1 17.01.2027 -
Facundo Mallo Rosario Central Aktiv 117 / 119 40% 2 11.01.2027 -